When you browse on this site, cookies collect data to enhance your experience and personalize the content and advertising you see.
Visit our Privacy Policy to learn more. By continuing to use the site, you agree to this use of cookies and data.
  • In Romania
  • List of Countries
  • For 7 days
  • Water Temperature
  • Weather Map
  • Weather Widgets
  • user-avatar
    Login

    Hourly Weather Oksford

    Today, 31 May, Sunday

    Time Temperature Precipitation Wind Pressure Humidity
    00:00 +10°C° 0 mm 4 mps 761 mmHg 91%
    01:00 +10°C° 0 mm 3 mps 761 mmHg 92%
    02:00 +9°C° 0 mm 3 mps 761 mmHg 93%
    03:00 +9°C° 0 mm 3 mps 761 mmHg 95%
    04:00 +10°C° 0 mm 3 mps 761 mmHg 91%
    05:00 +11°C° 0 mm 4 mps 762 mmHg 88%
    06:00 +12°C° 0 mm 4 mps 762 mmHg 85%
    07:00 +14°C° 0 mm 5 mps 762 mmHg 78%
    08:00 +16°C° 0 mm 5 mps 762 mmHg 71%
    09:00 +19°C° 0 mm 6 mps 762 mmHg 64%
    10:00 +20°C° 0 mm 6 mps 762 mmHg 62%
    11:00 +21°C° 0 mm 6 mps 762 mmHg 59%
    12:00 +21°C° 0 mm 6 mps 762 mmHg 57%
    13:00 +21°C° 0 mm 6 mps 762 mmHg 58%
    14:00 +21°C° 0 mm 6 mps 762 mmHg 58%
    15:00 +21°C° 0 mm 6 mps 762 mmHg 59%
    16:00 +20°C° 0 mm 5 mps 762 mmHg 63%
    17:00 +19°C° 0 mm 5 mps 762 mmHg 66%
    18:00 +18°C° 0 mm 4 mps 762 mmHg 70%
    19:00 +15°C° 0 mm 4 mps 762 mmHg 75%
    20:00 +14°C° 0 mm 4 mps 762 mmHg 79%
    21:00 +12°C° 0 mm 4 mps 763 mmHg 84%
    22:00 +11°C° 0 mm 4 mps 763 mmHg 87%
    23:00 +10°C° 0 mm 4 mps 762 mmHg 89%

    Tomorrow, 1 June, Monday

    Time Temperature Precipitation Wind Pressure Humidity
    00:00 +8°C° 0 mm 4 mps 762 mmHg 92%
    01:00 +8°C° 0 mm 4 mps 762 mmHg 93%
    02:00 +8°C° 0 mm 3 mps 762 mmHg 94%
    03:00 +8°C° 0 mm 3 mps 762 mmHg 95%
    04:00 +8°C° 0 mm 4 mps 762 mmHg 93%
    05:00 +10°C° 0 mm 4 mps 762 mmHg 92%
    06:00 +11°C° 0 mm 4 mps 762 mmHg 91%
    07:00 +13°C° 0 mm 5 mps 762 mmHg 85%
    08:00 +15°C° 0 mm 5 mps 762 mmHg 78%
    09:00 +17°C° 0 mm 5 mps 762 mmHg 72%
    10:00 +19°C° 0 mm 5 mps 762 mmHg 70%
    11:00 +20°C° 0 mm 5 mps 762 mmHg 68%
    12:00 +21°C° 0 mm 5 mps 762 mmHg 66%
    13:00 +21°C° 0.1 mm 5 mps 761 mmHg 66%
    14:00 +21°C° 0.1 mm 5 mps 761 mmHg 66%
    15:00 +21°C° 0.1 mm 5 mps 761 mmHg 66%
    16:00 +20°C° 0.1 mm 5 mps 761 mmHg 69%
    17:00 +20°C° 0.1 mm 4 mps 761 mmHg 73%
    18:00 +19°C° 0.1 mm 4 mps 760 mmHg 77%
    19:00 +17°C° 0 mm 4 mps 761 mmHg 82%
    20:00 +14°C° 0 mm 4 mps 761 mmHg 87%
    21:00 +12°C° 0 mm 4 mps 761 mmHg 92%
    22:00 +11°C° 0 mm 3 mps 761 mmHg 93%
    23:00 +10°C° 0 mm 3 mps 761 mmHg 94%

    Day after tomorrow, 2 June, Tuesday

    Time Temperature Precipitation Wind Pressure Humidity
    00:00 +8°C° 0 mm 3 mps 760 mmHg 96%
    01:00 +8°C° 0 mm 3 mps 760 mmHg 96%
    02:00 +8°C° 0 mm 3 mps 760 mmHg 97%
    03:00 +8°C° 0 mm 3 mps 760 mmHg 97%
    04:00 +8°C° 0 mm 3 mps 759 mmHg 96%
    05:00 +9°C° 0 mm 3 mps 759 mmHg 95%
    06:00 +10°C° 0 mm 3 mps 759 mmHg 94%
    07:00 +12°C° 0 mm 3 mps 759 mmHg 89%
    08:00 +16°C° 0 mm 3 mps 759 mmHg 83%
    09:00 +18°C° 0 mm 3 mps 758 mmHg 77%
    10:00 +19°C° 0 mm 3 mps 758 mmHg 74%
    11:00 +21°C° 0 mm 3 mps 758 mmHg 70%
    12:00 +23°C° 0 mm 2 mps 758 mmHg 67%
    13:00 +22°C° 0.4 mm 3 mps 757 mmHg 70%
    14:00 +22°C° 0.4 mm 3 mps 756 mmHg 73%
    15:00 +21°C° 0.4 mm 3 mps 756 mmHg 76%
    16:00 +21°C° 0.6 mm 3 mps 755 mmHg 79%
    17:00 +20°C° 0.6 mm 3 mps 755 mmHg 83%
    18:00 +20°C° 0.6 mm 3 mps 754 mmHg 86%
    19:00 +18°C° 0.2 mm 3 mps 754 mmHg 88%
    20:00 +17°C° 0.2 mm 2 mps 754 mmHg 91%
    21:00 +16°C° 0.2 mm 2 mps 754 mmHg 93%
    22:00 +16°C° 0.4 mm 2 mps 753 mmHg 94%
    23:00 +15°C° 0.4 mm 2 mps 753 mmHg 95%

    3 June, Wednesday

    Time Temperature Precipitation Wind Pressure Humidity
    00:00 +15°C° 0.4 mm 2 mps 753 mmHg 96%
    01:00 +15°C° 1.2 mm 2 mps 752 mmHg 96%
    02:00 +13°C° 1.2 mm 3 mps 752 mmHg 97%
    03:00 +13°C° 1.2 mm 3 mps 751 mmHg 97%
    04:00 +13°C° 0.7 mm 3 mps 751 mmHg 97%
    05:00 +13°C° 0.7 mm 4 mps 751 mmHg 96%
    06:00 +13°C° 0.7 mm 4 mps 751 mmHg 95%
    07:00 +14°C° 0.1 mm 5 mps 751 mmHg 91%
    08:00 +15°C° 0.1 mm 5 mps 751 mmHg 87%
    09:00 +16°C° 0.1 mm 6 mps 751 mmHg 84%
    10:00 +16°C° 0 mm 6 mps 751 mmHg 81%
    11:00 +17°C° 0 mm 7 mps 751 mmHg 79%
    12:00 +17°C° 0 mm 7 mps 751 mmHg 77%
    13:00 +17°C° 0 mm 7 mps 751 mmHg 77%
    14:00 +18°C° 0 mm 7 mps 750 mmHg 77%
    15:00 +18°C° 0 mm 7 mps 750 mmHg 77%
    16:00 +17°C° 0 mm 7 mps 750 mmHg 79%
    17:00 +17°C° 0 mm 7 mps 750 mmHg 81%
    18:00 +16°C° 0 mm 8 mps 750 mmHg 83%
    19:00 +15°C° 0 mm 8 mps 751 mmHg 84%
    20:00 +13°C° 0 mm 8 mps 751 mmHg 84%
    21:00 +12°C° 0 mm 8 mps 752 mmHg 84%
    22:00 +12°C° 0 mm 8 mps 752 mmHg 83%
    23:00 +12°C° 0 mm 8 mps 752 mmHg 82%

    4 June, Thursday

    Time Temperature Precipitation Wind Pressure Humidity
    00:00 +11°C° 0 mm 8 mps 752 mmHg 82%
    01:00 +11°C° 0 mm 8 mps 751 mmHg 83%
    02:00 +11°C° 0 mm 8 mps 751 mmHg 85%
    03:00 +11°C° 0 mm 8 mps 751 mmHg 87%
    04:00 +11°C° 0 mm 8 mps 751 mmHg 87%
    05:00 +11°C° 0 mm 8 mps 751 mmHg 87%
    06:00 +11°C° 0 mm 9 mps 751 mmHg 88%
    07:00 +11°C° 0 mm 8 mps 751 mmHg 86%
    08:00 +12°C° 0 mm 8 mps 752 mmHg 85%
    09:00 +12°C° 0 mm 7 mps 752 mmHg 83%
    10:00 +14°C° 0 mm 7 mps 752 mmHg 82%
    11:00 +15°C° 0 mm 7 mps 752 mmHg 80%
    12:00 +16°C° 0 mm 6 mps 752 mmHg 78%
    13:00 +16°C° 0 mm 6 mps 752 mmHg 77%
    14:00 +17°C° 0 mm 5 mps 752 mmHg 77%
    15:00 +17°C° 0 mm 5 mps 752 mmHg 76%
    16:00 +17°C° 0 mm 5 mps 751 mmHg 77%
    17:00 +17°C° 0 mm 5 mps 751 mmHg 79%
    18:00 +18°C° 0 mm 4 mps 751 mmHg 80%
    19:00 +15°C° 0 mm 4 mps 751 mmHg 85%
    20:00 +13°C° 0 mm 3 mps 751 mmHg 90%
    21:00 +11°C° 0 mm 3 mps 752 mmHg 94%
    22:00 +12°C° 0 mm 2 mps 752 mmHg 94%
    23:00 +10°C° 0 mm 2 mps 751 mmHg 94%

    5 June, Friday

    Time Temperature Precipitation Wind Pressure Humidity
    00:00 +9°C° 0 mm 2 mps 751 mmHg 94%
    01:00 +9°C° 0 mm 2 mps 751 mmHg 94%
    02:00 +9°C° 0 mm 2 mps 751 mmHg 94%
    03:00 +9°C° 0 mm 1 mps 751 mmHg 94%
    04:00 +9°C° 0 mm 2 mps 751 mmHg 90%
    05:00 +10°C° 0 mm 3 mps 750 mmHg 85%
    06:00 +10°C° 0 mm 3 mps 750 mmHg 81%
    07:00 +12°C° 0 mm 3 mps 750 mmHg 77%
    08:00 +14°C° 0 mm 4 mps 750 mmHg 73%
    09:00 +17°C° 0 mm 4 mps 750 mmHg 70%
    10:00 +18°C° 0 mm 4 mps 750 mmHg 67%
    11:00 +19°C° 0 mm 4 mps 750 mmHg 64%
    12:00 +20°C° 0 mm 4 mps 750 mmHg 62%
    13:00 +20°C° 0 mm 4 mps 750 mmHg 64%
    14:00 +20°C° 0 mm 5 mps 750 mmHg 66%
    15:00 +20°C° 0 mm 5 mps 750 mmHg 68%
    16:00 +17°C° 0 mm 6 mps 750 mmHg 71%
    17:00 +15°C° 0 mm 7 mps 750 mmHg 74%
    18:00 +12°C° 0 mm 8 mps 750 mmHg 77%
    19:00 +11°C° 0 mm 7 mps 751 mmHg 75%
    20:00 +10°C° 0 mm 7 mps 751 mmHg 73%
    21:00 +9°C° 0 mm 6 mps 752 mmHg 71%
    22:00 +8°C° 0 mm 6 mps 752 mmHg 74%
    23:00 +8°C° 0 mm 6 mps 752 mmHg 76%
    Show more